Back to catalog

ASTRA 1G

AliveCommunicationsGEO
NORAD 25071·PAYLOAD·🇱🇺 Luxembourg

Launched Dec 2, 1997 from Baikonur Cosmodrome

Loading…

TLE

FreshSource: Space-Track

Epoch: Sep 14, 2026, 07:37 UTC

1 25071U 97076A   26257.31737117 -.00000289  00000-0  00000-0 0  9996
2 25071   9.7075  53.9617 0010865 154.1312  37.8944  0.99040314105251

Track ASTRA 1G in real time with AllMySat

Download on the App Store